Location: Cortos
(40.7190°N, 4.5893°W)
Time: 09:42:18
(UTC+00:00)

Cosmos 1869 - Pass Details

Date: 05 July 2020
Orbit: 520 x 563 km, 82.5° (Epoch: 08 August)

Event Time Altitude Azimuth Distance (km) Brightness Sun altitude
Rises 22:02:38 0° 1° (N) 2,702 7.8 -18.7°
Reaches altitude 10° 22:04:55 10° 10° (N) 1,813 6.6 -18.9°
Maximum altitude 22:08:37 36° 78° (ENE) 874 4.1 -19.3°
Enters shadow 22:09:01 35° 92° (E) 891 4.1 -19.4°
